Regional Weather Roundup
Issued by NWS

Home | Current Version | Previous Version | Graphics & Text | Print | Product List | Glossary On
Versions: 1 2 3 4 5 6 7 8 9 10 11 12 13 14 15 16 17 18 19 20 21 22 23 24 25 26 27 28 29 30 31 32 33 34 35 36 37 38 39 40 41 42 43 44 45 46 47 48 49 50
000
ASUS45 KABQ 281701
RWRNM
NEW MEXICO REGIONAL WEATHER ROUNDUP
NATIONAL WEATHER SERVICE ALBUQUERQUE NM
1100 AM MDT THU JUL 28 2016

NOTE: "FAIR" MEANS FEW OR NO CLOUDS BELOW 12,000 FEET AGL WITH NO
       SIGNIFICANT WEATHER OR OBSTRUCTIONS TO VISION.

      THIS PRODUCT IS RELEASED AS TWO VERSIONS.  ONE VERSION NEAR
      THE TOP OF THE HOUR CONTAINING PRELIMINARY DATA FROM ALBUQUERQUE
      AND OTHER STATIONS.  A FINAL VERSION WITH ADDITIONAL DATA IS
      ISSUED ABOUT 10 MINUTES AFTER THE HOUR.

NMZ501-503-504-510>518-281800-
NORTHWEST PLATEAU/NORTHCENTRAL MOUNTAINS

CITY           SKY/WX    TMP DP  RH WIND       PRES   REMARKS
FARMINGTON     FAIR      86  47  25 SE13G21   30.21F
LOS ALAMOS     FAIR      79  47  33 CALM      30.39S
SANTA FE       FAIR      82  48  30 CALM      30.31F
TAOS           FAIR      79  43  27 CALM      30.39F
ANGEL FIRE     FAIR      73  47  38 W14G20    30.47F

$$
NMZ402-403-502-505>509-281800-
WESTCENTRAL MOUNTAINS/SOUTHWEST MOUNTAINS

CITY           SKY/WX    TMP DP  RH WIND       PRES   REMARKS
GALLUP         FAIR      84  49  29 W12       30.30F
GRANTS         FAIR      85  48  28 SE12      30.32F

$$
NMZ407-409-411-412-281800-
SOUTHERN DESERTS

CITY           SKY/WX    TMP DP  RH WIND       PRES   REMARKS
LORDSBURG      FAIR      88  55  33 N3        30.15S
DEMING         FAIR      90  55  30 SE9       30.15S
LAS CRUCES     FAIR      88  51  27 SE8       30.18S
T OR C         FAIR      84  55  36 CALM      30.19F

$$
NMZ519>523-281800-
CENTRAL VALLEYS/CENTRAL HIGHLANDS

CITY           SKY/WX    TMP DP  RH WIND       PRES   REMARKS
ALBUQUERQUE    FAIR      84  53  34 VRB3      30.25F
DOUBLE EAGLE   MOSUNNY   82  52  34 VRB5      30.30F
MORIARTY ARPT  FAIR      75  54  47 CALM      30.33S
CLINES CORNERS FAIR      78  52  40 W6        30.38S
BELEN          NOT AVBL
SOCORRO        FAIR      85  48  27 CALM      30.20F

$$
NMZ524>526-539-540-281800-
SOUTHCENTRAL MOUNTAINS

CITY           SKY/WX    TMP DP  RH WIND       PRES   REMARKS
RUIDOSO        NOT AVBL

$$
NMZ527>531-281800-
NORTHEAST HIGHLANDS/NORTHEAST PLAINS

CITY           SKY/WX    TMP DP  RH WIND       PRES   REMARKS
LAS VEGAS      FAIR      83  44  25 S7        30.34S
RATON          FAIR      79  55  43 S9        30.28F
CLAYTON        FAIR      81  58  45 SE13      30.22F

$$
NMZ532>537-281800-
EASTCENTRAL PLAINS

CITY           SKY/WX    TMP DP  RH WIND       PRES   REMARKS
TUCUMCARI      FAIR      84  57  39 SE12      30.17F
CANNON AFB     NOT AVBL
CLOVIS AIRPORT FAIR      82  57  42 E3        30.21R

$$
NMZ028-029-538-281800-
SOUTHEAST PLAINS

CITY           SKY/WX    TMP DP  RH WIND       PRES   REMARKS
ROSWELL        FAIR      85  60  42 NE8       30.15S
ARTESIA        FAIR      86  61  42 N8        30.14F
CARLSBAD       FAIR      88  61  40 NE9       30.11F
HOBBS          MOSUNNY   88  59  37 NE6       30.14F


$$




USA.gov is the U.S. government's official web portal to all federal, state and local government web resources and services.